Edwards AFB North Base, CA

5:41 AM PDT on October 23, 2017 (GMT -0700)
Edwards AFB North Base

Weather History for K9L2 - January, 2014

Change the Weather History Date:

Sunday, January 26, 2014

  Actual Average (KEDW) Record (KEDW)
Temperature  
Mean Temperature 48 °F -  
Max Temperature 64 °F 58 °F 73 °F (2003)
Min Temperature 32 °F 31 °F 21 °F (2007)
Degree Days  
Heating Degree Days 17    
Moisture  
Dew Point 13 °F    
Average Humidity 27    
Maximum Humidity 43    
Minimum Humidity 13    
Precipitation  
Precipitation 0.00 in - - ()
Sea Level Pressure  
Sea Level Pressure 30.10 in    
Wind  
Wind Speed 1 mph (SW)    
Max Wind Speed 5 mph    
Max Gust Speed -    
Visibility 10 miles    
Events      
Averages and records for this station are not official NWS values.
T = Trace of Precipitation, MM = Missing Value Source: NWS Daily Summary

Daily Weather History Graph

Daily Weather History Graph

Search for Another Location

Airport or City:

Trip Planner

Search our weather history database for the weather conditions in past years. The results will help you decide how hot, cold, wet, or windy it might be!

Date:

Astronomy

Jan. 26, 2014 Rise Set
Actual Time 6:54 AM PST 5:14 PM PST
Civil Twilight 6:27 AM PST 5:41 PM PST
Nautical Twilight 5:56 AM PST 6:11 PM PST
Astronomical Twilight 5:26 AM PST 6:41 PM PST
Moon 2:35 AM PST (1/26) 1:08 PM PST (1/26)
Length of Visible Light 11h 13m
Length of Day
10h 20m
Waning Crescent, 23% of the Moon is Illuminated
Jan 26
Waning Crescent
Jan 30
New
Feb 6
First Quarter
Feb 14
Full
Feb 22
Last Quarter

Hourly Weather History & Observations

Time (PST) Temp. Windchill Dew Point Humidity Pressure Visibility Wind Dir Wind Speed Gust Speed Precip Events Conditions
12:55 AM 37.0 °F - 7.0 °F 29% 30.15 in 10.0 mi Calm Calm - N/A   Clear
1:55 AM 32.0 °F - 5.0 °F 32% 30.15 in 10.0 mi Calm Calm - N/A   Clear
2:55 AM 33.1 °F - 7.0 °F 34% 30.14 in 10.0 mi Calm Calm - N/A   Clear
4:55 AM 32.0 °F - 6.1 °F 34% 30.14 in 10.0 mi Calm Calm - N/A   Clear
5:55 AM 33.1 °F - 6.1 °F 32% 30.14 in 10.0 mi Calm Calm - N/A   Clear
6:55 AM 35.1 °F 32.2 °F 9.0 °F 34% 30.17 in 10.0 mi WNW 3.5 mph - N/A   Overcast
7:55 AM 43.0 °F - 10.9 °F 27% 30.17 in 10.0 mi Calm Calm - N/A   Clear
8:55 AM 46.0 °F - 12.0 °F 25% 30.17 in 10.0 mi Calm Calm - N/A   Mostly Cloudy
10:55 AM 51.1 °F - 12.9 °F 22% 30.16 in 10.0 mi Calm Calm - N/A   Clear
11:55 AM 55.0 °F - 12.9 °F 19% 30.12 in 10.0 mi Calm Calm - N/A   Mostly Cloudy
1:55 PM 63.0 °F - 12.0 °F 14% 30.05 in 10.0 mi Calm Calm - N/A   Clear
3:55 PM 64.9 °F - 12.9 °F 13% 30.02 in 10.0 mi South 3.5 mph - N/A   Mostly Cloudy
4:55 PM 62.1 °F - 15.1 °F 16% 30.03 in 10.0 mi South 4.6 mph - N/A   Overcast
5:55 PM 60.1 °F - 16.0 °F 18% 30.03 in 10.0 mi SW 4.6 mph - N/A   Partly Cloudy
6:55 PM 54.0 °F - 24.1 °F 31% 30.04 in 10.0 mi SSW 3.5 mph - N/A   Mostly Cloudy
7:55 PM 55.9 °F - 18.0 °F 23% 30.02 in 10.0 mi West 3.5 mph - N/A   Clear
9:55 PM 52.0 °F - 19.9 °F 28% 30.04 in 10.0 mi Calm Calm - N/A   Clear
10:55 PM 45.0 °F - 21.9 °F 40% 30.05 in 10.0 mi Calm Calm - N/A   Mostly Cloudy
11:55 PM 43.0 °F 41.3 °F 21.9 °F 43% 30.06 in 10.0 mi NNE 3.5 mph - N/A   Overcast